Regional Weather Roundup
Issued by NWS

Home | Current Version | Previous Version | Graphics & Text | Print | Product List | Glossary On
Versions: 1 2 3 4 5 6 7 8 9 10 11 12 13 14 15 16 17 18 19 20 21 22 23 24 25 26 27 28 29 30 31 32 33 34 35 36 37 38 39 40 41 42 43 44 45 46 47 48 49 50
857
ASUS44 KJAN 271103
RWRMS

MISSISSIPPI HOURLY WEATHER ROUNDUP
NATIONAL WEATHER SERVICE JACKSON MS
500 AM CST TUE JAN 27 2015

NOTE: "FAIR: INDICATES FEW OR NO CLOUDS BELOW 12,000 FEET WITH NO
SIGNIFICANT WEATHER AND/OR OBSTRUCTIONS TO VISIBILITY.

MSZ001>002-007>008-010>013-018>021-025>028-034>036-271200-
NORTHWEST MISSISSIPPI

CITY           SKY/WX    TMP DP  RH WIND       PRES   REMARKS
CLARKSDALE     FAIR      39  36  87 W8        30.02R WCI  34
CLEVELAND      FAIR      39  36  90 CALM      30.02R
GREENWOOD      CLEAR     36  34  92 CALM      30.02R
GREENVILLE     CLEAR     42  35  76 W5        30.02R
GRENADA        FAIR      32  32 100 CALM      30.01S
OLIVE BRANCH   CLEAR     36  36 100 CALM      29.99S
OXFORD         FAIR      32  30  93 CALM      30.00S
TUNICA         SUNNY     41  34  75 NW9       30.02R
$$

MSZ003>006-009-014>017-022>024-029>033-037>039-271200-
NORTHEAST MISSISSIPPI

CITY           SKY/WX    TMP DP  RH WIND       PRES   REMARKS
COLUMBUS AFB   CLEAR     35  33  93 NW5       29.98R WCI  31
CORINTH        FAIR      32  30  93 CALM      29.95S
GOLDN TRIANGLE CLEAR     41  34  75 NW6       29.97R
STARKVILLE     FAIR      45  36  70 NW6       29.99R
TUPELO         CLEAR     43  33  68 NW6       29.98R
$$

MSZ040-058-271200-
CENTRAL MISSISSIPPI

CITY           SKY/WX    TMP DP  RH WIND       PRES   REMARKS
JACKSON INTL   CLEAR     39  32  76 CALM      30.02R
JACKSON HAWKNS CLEAR     44  34  67 W3        30.03R
MERIDIAN KEY   CLEAR     33  30  88 S3        30.00R
MERIDIAN NAS   CLEAR     39  33  79 W8        29.99R WCI  33
RAYMOND        FAIR      36  30  80 MISG      30.04R
VICKSBURG      CLEAR     35  33  92 S3        30.05R
$$

MSZ059>079-271200-
SOUTH MISSISSIPPI

CITY           SKY/WX    TMP DP  RH WIND       PRES   REMARKS
BROOKHAVEN     FAIR      45  36  70 W5        30.06R
HATTIESBURG    CLEAR     47  35  63 W6        30.03R
MCCOMB         CLEAR     43  34  70 NW3       30.04R
NATCHEZ        CLEAR     43  34  70 S3        30.06R
PINE BELT      CLEAR     45  34  65 W7        30.02R
$$

MSZ080>082-271200-
COASTAL MISSISSIPPI

CITY           SKY/WX    TMP DP  RH WIND       PRES   REMARKS
BILOXI         CLEAR     47  40  76 W6        30.03S
PASCAGOULA     CLEAR     40  36  86 W3        30.03S
GULFPORT       CLEAR     40  36  86 CALM      30.03F
$$



USA.gov is the U.S. government's official web portal to all federal, state and local government web resources and services.